Starlink 2001

operational
NORAD ID: 47596 Int'l Des: 2021-009 Owner: SPXS Country: US Constellation: starlink
LEOCIRCULARSTARLINK_TYPE

Über Starlink 2001

Beschreibung wird geladen...

Live-Position

3D-Globus wird geladen...

Nächste Überflüge

Höhenverlauf

Altitude vs Time

uPlot chart will show altitude changes over time

Zweizeiliger Elementsatz

1 47596U 21009BA 25259.27570614 .00000906 00000-0 79714-4 0 9995
2 47596 53.0528 104.5945 0001607 93.0123 267.1050 15.06397780254228
Epoch: 16. Sept. 2025 • Age: 15 hours

Aktueller Status

Höhe 551.9 km
Geschwindigkeit 7.59 km/s
Subsatellitenpunkt 49.57°N, 151.79°W
Startdatum 4. Feb. 2021
Alter 4.6 years
Typ internet

Technische Details

Klassifizierung Payload
Masse 260.00 kg
Trockenmasse 248.00 kg
Gesamtmasse 260.00 kg
Länge 0.20 m
Durchmesser 2.80 m
Spannweite 9.00 m
Form Box + pan
Hersteller SPXS
Bus-Typ Starlink
Phasenstatus In Orbit
Besitzer/Staat SPXS/US

Große Konstellationen

Loading constellations...